Dewpoint
63 63 55 53 42 29 26 22 23 21 21 23 21 20 20 21 24 14 38 46 52 48 59 67 69 66 64 63 62 60 58 57 57 56 54 53 55 58 59 61 62 62 62 60 60 62 62 63 65
58 54 51 45 37 21 23 19 21 22 22 24 25 25 23 21 36 38 39 43 48 51 58 64 69 67 65 64 63 62 59 59 58 57 55 55 56 58 59 59 60 60 61 61 60 60 61 62 64
52 54 48 43 36 30 24 17 21 21 21 22 21 29 30 30 38 39 40 41 44 52 59 63 68 68 65 63 63 62 59 59 59 58 55 55 56 59 59 59 59 60 60 59 58 60 60 61 63
51 50 41 39 35 32 26 17 21 19 19 19 22 24 35 36 37 37 38 41 41 47 60 63 67 67 65 63 62 62 60 59 58 57 57 56 56 58 58 59 59 60 60 59 60 59 59 60 62
47 42 38 35 33 21 16 17 21 17 18 17 28 27 32 35 37 38 36 36 35 47 59 63 66 66 65 63 61 61 60 59 57 55 55 56 56 57 58 58 58 58 59 59 57 61 61 62 64
40 40 36 35 35 24 17 18 20 18 18 26 29 31 32 36 36 35 44 43 46 53 59 61 63 65 65 62 61 59 58 58 57 56 56 57 58 57 57 58 57 57 57 59 57 61 62 64 66
38 37 35 36 35 18 17 19 19 19 18 22 31 27 30 33 33 34 33 35 38 43 45 51 49 52 55 57 57 58 59 59 59 58 57 57 58 57 58 59 58 57 57 59 59 60 62 63 66
40 39 34 27 27 22 18 19 19 21 20 29 30 26 26 31 32 33 36 37 36 37 39 40 47 52 53 53 56 56 58 58 58 59 59 58 58 58 58 58 58 57 57 59 59 61 62 63 65
36 33 31 32 23 19 19 17 22 25 25 28 29 30 29 32 33 34 36 39 41 43 47 48 52 52 53 54 54 56 57 58 58 58 58 57 57 58 58 58 58 58 58 60 60 61 63 63 64
33 32 31 29 19 17 18 16 21 24 26 25 26 30 32 33 34 35 38 41 43 45 48 51 51 52 54 54 55 55 56 57 57 57 57 57 56 56 57 58 58 57 58 60 60 62 63 64 64
31 28 30 29 20 19 18 17 21 24 25 26 24 28 31 34 36 37 40 42 45 47 49 48 50 52 54 54 55 55 55 56 57 57 56 58 58 58 57 58 58 59 60 61 62 63 63 64 64
27 28 28 27 23 17 17 19 23 25 23 27 27 30 32 35 36 38 42 45 47 47 48 49 51 52 53 54 55 55 56 56 57 56 56 57 57 57 57 56 57 57 58 59 61 62 63 64 64
27 24 22 21 18 18 19 18 21 25 28 30 28 31 33 35 37 40 43 48 48 48 49 49 53 54 54 55 55 55 56 57 57 56 56 56 56 56 56 56 57 57 58 60 61 62 62 63 64
26 21 19 17 18 18 18 19 23 24 31 30 28 30 34 36 38 42 46 47 48 49 49 50 52 54 55 54 55 56 56 56 56 56 56 56 56 55 56 56 56 57 58 59 60 61 62 63 64
22 19 19 18 17 17 18 17 20 25 29 28 28 31 34 37 39 42 47 47 49 49 50 49 54 54 55 55 55 56 57 56 56 56 56 56 56 56 57 57 56 57 58 59 60 61 62 61 62
20 20 18 19 17 17 15 14 16 24 27 27 28 31 34 36 39 44 49 48 50 49 49 48 52 54 55 55 55 56 57 57 57 57 57 57 57 57 57 56 56 57 59 60 60 61 60 61 62
21 19 19 19 18 17 15 15 18 27 28 27 28 31 34 36 40 45 49 48 50 49 50 49 52 54 54 55 56 56 57 58 58 58 58 58 60 60 58 58 59 60 60 60 60 61 60 61 62
19 19 19 18 19 17 16 15 18 27 28 28 28 31 34 37 40 45 48 49 50 50 48 49 49 53 53 54 55 56 56 57 58 58 59 59 59 60 60 59 61 61 60 60 60 60 61 60 62
21 20 19 21 22 18 18 17 18 23 28 28 28 30 34 36 40 45 47 49 50 52 48 48 48 49 50 53 54 55 55 57 57 58 59 59 60 60 60 60 60 61 60 60 60 61 60 61 62
20 20 20 21 21 20 19 18 20 23 26 27 28 30 33 36 40 44 47 49 48 48 51 48 48 49 51 53 54 55 56 57 58 59 59 60 61 60 61 61 61 61 60 61 60 60 59 61 61
22 21 21 21 21 19 18 16 17 21 27 31 30 30 34 35 39 42 44 45 48 44 46 50 48 46 45 52 55 55 56 58 58 58 59 60 61 61 61 61 61 61 61 60 60 61 60 59 61
21 23 23 21 19 18 18 14 17 20 24 29 29 30 32 35 39 41 42 41 48 46 48 48 48 47 48 51 55 55 56 56 58 58 59 60 60 61 61 61 61 61 61 60 60 61 61 60 58
23 24 22 21 19 18 18 15 16 28 24 25 30 30 32 34 38 40 41 40 46 48 49 50 50 50 50 52 55 55 55 56 58 58 58 59 60 61 61 61 60 60 61 61 61 60 60 60 59
25 23 22 24 21 15 16 16 15 17 20 22 30 31 32 34 38 41 41 41 43 48 50 50 52 51 50 53 54 53 51 50 53 56 57 58 59 60 61 61 61 61 61 61 60 60 60 59 59
22 19 17 15 16 14 21 18 16 19 21 25 28 32 32 34 37 41 40 40 42 46 49 50 52 50 50 52 53 53 50 50 51 54 57 59 59 60 60 60 61 61 61 61 61 60 60 60 59
19 19 17 13 9 7 23 16 16 26 33 34 34 33 33 34 37 41 41 41 42 44 49 51 50 50 49 50 51 50 49 48 49 52 57 59 59 60 60 60 61 61 62 61 61 61 60 60 60
20 17 18 15 20 17 17 22 27 34 35 35 35 33 32 34 37 40 41 41 42 43 46 51 51 49 48 49 50 49 49 47 47 48 51 56 58 59 59 58 58 59 61 61 60 60 60 60 58
21 20 16 17 10 9 16 21 18 21 28 35 35 33 33 35 37 40 42 41 42 43 45 51 52 47 48 47 48 48 47 47 47 48 49 52 52 52 52 52 53 54 57 59 59 58 59 58 57
21 19 21 16 16 10 10 14 26 28 34 36 36 34 33 34 36 39 41 41 41 42 45 49 51 46 47 46 47 47 47 46 46 47 48 49 50 50 51 52 53 53 54 56 55 55 56 55 55
23 20 22 18 17 23 18 16 33 38 40 41 39 34 34 35 36 38 40 41 41 42 45 48 50 45 46 45 47 47 46 45 45 46 47 48 49 51 52 52 52 52 52 53 53 52 52 52 53
Wind_Speed
10 8 2 3 1 3 3 6 2 4 2 2 4 4 7 6 7 4 5 3 6 3 13 16 17 16 16 16 16 16 15 14 13 13 13 12 11 11 12 11 10 10 11 11 10 8 5 3 4
8 4 3 3 1 2 8 4 10 10 3 4 6 4 2 2 3 2 2 3 8 9 12 13 15 18 19 18 18 17 16 16 16 15 15 13 12 12 13 12 12 11 12 13 12 11 8 5 5
6 4 2 3 2 8 8 9 12 5 5 5 3 2 1 2 2 8 6 10 8 9 12 16 20 19 18 18 17 17 17 17 18 18 17 15 13 12 11 12 12 12 12 14 14 11 10 8 6
3 3 5 1 9 10 8 8 7 4 3 5 3 3 0 4 4 8 8 8 7 9 8 10 16 16 18 17 17 17 19 20 20 20 18 17 15 15 13 11 10 10 13 15 14 14 12 10 8
4 4 1 2 7 5 9 6 11 10 3 4 4 5 2 2 1 3 4 4 9 5 6 9 11 14 16 16 18 19 20 22 22 21 20 19 19 17 15 15 13 12 13 14 17 13 14 11 8
3 3 2 9 13 5 6 7 10 10 8 3 3 5 3 3 2 4 7 9 6 6 3 3 6 13 15 17 17 18 20 22 21 22 22 20 20 20 18 17 15 13 14 16 17 16 15 12 9
2 3 5 8 14 7 6 7 13 15 7 6 8 5 2 2 4 7 8 7 6 5 3 1 4 5 6 7 10 11 12 14 14 19 24 20 20 21 19 17 14 14 15 16 18 16 15 12 10
4 4 2 5 12 12 7 9 3 10 9 5 6 6 6 5 9 9 9 7 4 2 1 5 3 2 4 7 9 11 13 14 13 14 14 15 19 22 23 18 16 14 16 16 18 16 17 14 11
4 2 8 10 6 8 3 7 2 1 9 2 3 4 2 14 9 7 3 3 2 2 4 2 1 3 5 5 7 9 11 12 12 11 11 9 6 9 15 16 16 15 16 15 17 17 17 15 12
5 4 7 6 8 9 7 8 11 5 5 2 2 6 9 9 7 6 3 1 4 6 5 2 3 5 6 6 6 7 7 8 9 9 10 10 8 8 9 12 18 15 16 15 15 18 18 15 9
6 9 13 16 14 10 9 8 7 7 8 11 16 16 10 8 7 5 2 1 4 5 3 6 3 5 6 6 6 6 7 8 8 9 10 8 8 6 7 4 6 5 5 8 12 15 12 11 11
6 13 11 11 12 8 11 7 8 12 11 9 13 18 12 12 9 6 3 2 4 5 5 7 4 6 7 6 7 8 8 9 8 7 8 6 6 7 8 8 7 6 6 8 8 9 11 12 11
7 9 2 5 10 8 7 12 7 16 6 7 15 15 15 13 10 6 4 2 4 6 6 6 5 6 7 7 8 10 9 9 7 6 7 5 4 6 9 9 8 8 5 5 5 7 8 12 11
7 7 0 1 3 4 10 4 5 9 8 12 18 16 14 13 11 6 4 2 4 5 6 6 6 5 6 7 9 10 9 8 5 7 8 7 7 6 7 9 9 7 7 4 6 10 10 11 11
1 4 2 3 5 4 4 6 15 7 13 15 17 13 12 12 9 7 4 3 3 3 5 5 6 5 7 8 8 8 6 4 4 6 6 7 6 6 6 6 7 8 8 6 6 8 11 11 11
3 3 4 5 5 4 8 18 13 13 20 20 16 14 14 12 9 7 6 3 2 1 4 5 5 5 7 7 8 7 6 5 5 6 6 7 7 6 6 7 8 8 8 8 11 12 12 11 13
6 9 8 7 9 3 10 15 5 11 21 19 17 15 14 10 7 7 7 5 1 1 5 4 5 5 7 9 8 7 6 4 5 5 6 6 3 3 8 9 7 10 11 12 13 12 15 13 13
8 7 5 8 3 8 9 24 17 9 20 21 19 16 14 13 11 9 8 6 3 1 4 4 5 6 8 9 7 5 4 6 7 7 3 2 3 6 10 9 11 9 12 13 12 16 12 15 16
7 6 11 10 10 7 14 20 28 12 17 17 19 20 17 15 9 8 7 5 4 1 4 5 7 8 8 5 5 5 6 7 9 7 4 1 3 6 9 9 8 8 10 15 14 17 19 16 20
6 8 11 11 6 7 13 19 17 10 20 24 24 22 20 14 11 9 8 5 4 2 4 3 5 7 8 6 4 2 5 4 3 5 8 9 7 10 7 11 10 9 12 15 16 17 16 19 15
8 6 11 17 6 4 5 8 13 8 9 8 13 18 16 20 17 13 10 7 5 2 2 3 5 7 8 9 4 5 4 4 6 6 6 8 10 12 13 12 12 13 12 12 16 12 20 20 15
17 14 13 12 7 17 4 17 12 10 12 14 17 22 24 21 15 14 12 8 8 2 1 4 3 5 5 6 7 7 5 7 4 3 3 7 11 15 14 13 11 14 14 14 14 10 13 23 18
18 5 7 9 9 2 6 6 5 3 13 19 23 24 24 24 21 19 16 12 10 6 1 1 3 5 3 2 6 6 7 8 5 5 7 9 10 13 11 12 13 14 14 13 15 13 14 14 11
10 2 4 3 3 5 12 12 5 9 12 14 9 22 24 25 21 18 16 11 8 7 2 2 3 3 3 1 3 6 5 5 9 9 11 12 10 9 9 8 9 11 13 15 14 14 16 14 15
4 2 8 6 3 10 2 5 13 15 19 19 19 23 26 24 23 20 18 13 10 10 8 3 3 1 1 4 1 2 4 7 9 9 9 9 6 6 7 3 3 7 12 13 14 14 15 12 13
10 12 7 8 9 13 4 6 8 9 9 13 10 18 21 25 23 22 21 17 14 12 11 6 5 4 2 3 3 1 3 5 7 7 8 8 6 9 8 3 2 5 7 13 13 13 11 9 12
7 8 9 7 2 3 5 7 13 7 6 3 9 18 25 26 25 24 21 18 15 13 12 10 7 5 4 5 4 3 1 4 7 7 6 6 6 8 9 4 5 6 9 10 11 11 11 11 8
16 10 5 1 7 12 5 5 13 16 10 5 11 18 22 22 23 22 22 19 15 13 9 9 9 8 6 5 5 4 2 2 6 7 7 4 4 3 8 8 9 11 12 13 12 9 11 10 10
6 7 2 3 5 13 17 11 7 7 9 13 15 20 25 29 27 24 23 20 17 11 11 11 12 9 8 6 5 4 2 3 4 9 8 7 7 7 12 12 11 13 16 15 14 13 13 14 13
19 21 19 17 9 4 7 20 7 8 12 6 9 17 18 19 26 23 24 21 16 14 13 13 13 11 9 7 6 5 4 4 5 7 8 7 12 9 12 13 15 13 13 11 17 17 14 19 19
Wind_Direction
150 158 182 5 243 51 260 254 269 228 269 209 132 167 193 150 169 222 296 209 260 243 197 202 201 204 217 218 223 228 230 234 243 252 255 252 251 255 263 264 269 264 257 251 249 254 252 265 304
135 143 55 83 79 268 263 240 228 222 207 110 104 101 140 226 136 183 149 212 201 215 200 200 203 210 217 222 226 229 232 239 246 254 256 252 248 246 250 255 260 262 261 248 248 250 244 238 260
131 57 40 76 123 242 251 232 221 236 220 184 153 46 174 197 138 173 227 202 205 211 200 206 212 217 223 228 235 237 242 247 251 254 257 254 246 241 244 252 258 261 262 259 241 241 246 235 241
117 57 64 162 248 271 240 260 202 221 225 209 173 207 217 217 176 192 206 208 218 224 209 218 222 226 231 236 242 246 249 253 257 258 257 254 246 240 238 243 248 267 268 258 255 231 239 241 231
45 71 332 281 264 250 255 262 179 192 206 214 167 214 212 268 203 53 345 298 220 216 216 219 226 234 240 245 253 254 257 259 261 263 258 249 238 235 237 243 249 257 269 257 257 249 229 230 226
97 93 345 307 292 279 254 207 178 194 209 195 147 147 220 296 83 13 73 63 75 147 154 206 235 249 243 250 261 274 279 279 267 261 260 244 236 232 234 237 240 251 258 262 243 252 228 219 219
156 137 250 268 285 302 227 178 207 205 210 223 151 171 242 195 99 91 79 69 68 92 92 178 268 307 335 325 307 304 308 306 299 280 256 249 237 234 237 235 238 246 252 256 243 248 234 223 215
157 137 187 242 277 275 216 185 250 176 211 125 150 216 224 172 120 98 71 58 76 50 324 249 240 332 327 318 312 305 309 305 299 301 281 262 253 244 234 237 239 247 247 251 241 242 232 219 212
137 206 253 268 257 252 204 194 255 94 148 170 196 168 181 133 130 111 85 43 27 299 303 257 257 328 342 313 311 317 311 304 301 302 302 294 285 277 257 251 246 234 246 248 240 238 226 213 202
168 191 237 208 221 252 219 198 176 190 162 156 148 101 118 124 136 137 117 29 335 318 315 298 299 329 321 311 314 311 305 303 292 299 296 282 273 259 248 237 242 236 245 240 242 226 212 205 187
196 234 249 246 229 218 227 213 180 184 220 213 201 165 150 143 144 146 155 278 300 294 290 329 302 312 305 308 315 309 287 276 274 264 266 270 275 255 250 229 242 226 261 280 239 214 199 182 178
219 249 244 262 211 170 209 151 208 190 229 241 188 161 160 166 167 164 189 251 268 298 315 332 315 319 314 305 318 306 300 298 285 275 263 262 264 238 217 206 211 216 238 261 232 196 177 172 170
226 282 290 242 177 193 145 214 207 221 289 153 152 164 171 169 170 184 201 228 286 317 330 328 318 324 330 320 314 305 303 294 292 275 259 247 238 202 195 199 195 205 209 215 189 163 170 169 169
230 233 86 107 192 199 190 211 181 237 157 157 165 181 177 172 181 185 188 202 306 327 326 330 292 311 339 318 305 304 299 274 266 266 254 239 236 205 189 192 194 197 201 192 181 166 164 158 161
81 202 30 243 173 221 128 259 232 209 172 177 185 180 174 186 195 180 200 189 283 1 321 330 317 317 338 318 302 297 299 303 309 284 277 265 248 242 214 194 190 191 185 179 176 155 142 151 174
138 70 205 257 191 239 169 261 263 203 179 196 188 181 181 190 197 181 202 218 259 26 325 338 349 337 338 313 301 309 320 322 301 285 284 280 273 252 211 187 197 175 161 162 152 141 140 162 173
22 249 241 287 211 178 193 262 283 194 191 199 188 186 185 188 197 198 209 227 258 32 320 354 355 332 316 311 309 324 328 326 323 329 328 316 284 210 189 170 160 157 146 142 137 143 144 161 142
252 266 255 272 264 214 237 255 261 218 202 205 189 187 189 192 197 198 205 224 260 18 319 328 329 329 327 307 305 331 333 354 25 15 8 79 27 131 138 117 118 132 136 141 139 139 139 147 133
237 260 271 282 275 230 255 260 277 234 212 209 198 191 193 198 200 201 210 224 274 257 319 343 336 348 341 331 337 343 347 349 29 7 34 315 110 105 114 118 125 132 142 142 139 132 143 139 131
232 262 282 290 298 201 281 288 290 222 227 213 203 195 194 190 183 195 206 208 263 324 278 322 329 355 352 336 317 329 332 7 22 4 20 14 73 115 97 122 124 118 135 125 133 138 146 134 137
239 251 276 280 297 241 252 287 290 264 245 210 202 195 191 190 185 193 197 208 242 328 318 311 306 332 338 342 348 358 355 61 51 10 40 23 71 81 69 85 93 88 117 106 127 142 141 133 126
264 252 260 280 303 298 171 290 270 271 270 239 213 198 194 191 190 194 191 198 214 226 305 23 350 335 339 349 52 55 31 58 30 58 23 60 69 75 76 73 80 84 96 97 130 97 128 138 132
249 247 261 275 269 275 257 256 244 311 269 261 230 203 194 188 187 194 193 201 209 220 143 34 5 21 18 9 84 75 45 55 42 64 88 70 67 71 77 76 81 81 88 105 107 93 105 127 116
230 302 45 66 125 259 250 214 251 235 237 263 237 198 194 184 189 196 194 201 206 213 190 93 32 11 77 126 78 68 46 60 85 54 56 45 40 59 60 69 76 88 105 110 102 85 92 104 108
146 110 303 297 254 261 122 176 244 258 257 254 262 199 185 178 186 193 192 201 203 202 199 158 95 82 113 209 246 44 55 54 68 81 95 78 91 83 116 124 77 71 102 106 117 90 98 103 114
196 199 206 263 277 277 144 246 269 247 290 283 251 192 167 175 186 191 192 199 200 207 205 191 148 153 173 170 171 121 94 77 72 86 92 88 95 123 141 181 167 107 125 127 126 112 123 141 145
186 206 227 227 127 279 253 275 289 261 313 10 144 160 173 176 186 191 194 200 202 209 205 196 184 165 188 184 175 167 161 95 81 85 107 106 106 117 140 198 223 144 155 156 139 144 139 148 146
202 172 215 272 256 253 262 273 260 285 312 201 177 185 178 174 187 191 196 201 209 213 198 188 196 183 181 180 169 178 167 77 64 79 105 152 96 67 109 117 124 122 140 150 155 161 160 148 163
152 189 128 178 188 250 268 261 234 274 277 260 209 194 184 180 186 190 198 201 210 212 193 190 191 189 186 188 166 158 137 93 73 76 81 92 78 82 98 113 103 110 124 135 141 138 142 141 144
222 213 207 221 231 211 235 265 230 281 290 230 202 202 187 192 183 186 196 197 204 210 192 190 191 188 196 189 167 159 134 105 99 85 83 96 103 89 97 99 101 102 104 117 121 124 124 125 129